Content
SEND FEEDBACK

Daily
Averages
Monthly
Summary
United States of America

POCATELLO, IDAHO


Home > North America > United States > Idaho
Elevation: 4454 feet     Latitude: 42 55N     Longitude: 112 36W

WEATHER
 
SELECT A DAY
Number of Records: 197,662;   Date Range: 1/1/95 - 12/19/14
 
SHARE

PRINT THIS DATA

[ ← Previous Day ]
WEATHER ALMANAC - JANUARY 31, 2013
[ Next Day → ]
[ °C ]   °F
Weather ElementAverageHighLow
Temperature35.8 °F37.9 °F (1:53 pm)33.8 °F (4:06 am)
Dewpoint30.9 °F32 °F (10:53 am)30 °F (2:53 am)
Humidity82.8 %89 % (12:53 am)76 % (6:53 pm)
Barometer30.29 in30.36 in (10:53 am)30.22 in (4:06 am)
Wind Speed15.4 mph20.7 mph (2:53 am)
Wind Gust27.6 mph (6:53 am)
Weather ElementAverage
Visibility10 mi
Wind DirectionSW (225.8 °)

Weather ElementTotal
Precipitation---
Heating Degree Days29.2 (Base 65)
Averaged from 26 records on January 31, 2013
WEATHER CONDITIONS BREAKOUT
WIND DIRECTION BREAKOUT
WEATHER BY HOUR - JANUARY 31, 2013
[ °C ]   °F
Local TimeTemperatureDewpointHumidityBarometerVisibilityWind DirectionWind SpeedGust SpeedPrecipitationEventsConditions
12:53 AM34.0 °F30.9 °F89 %30.26 in10.0 miSW (230°)19.6 mphOvercast
1:53 AM34.0 °F30.9 °F89 %30.27 in10.0 miWSW (240°)19.6 mph26.5 mphOvercast
2:53 AM34.0 °F30.0 °F85 %30.27 in10.0 miWSW (250°)20.7 mphOvercast
3:53 AM34.0 °F30.0 °F85 %30.27 in10.0 miWSW (240°)18.4 mph26.5 mphOvercast
4:06 AM33.8 °F30.2 °F87 %30.22 in10.0 miWSW (240°)18.4 mphOvercast
4:53 AM34.0 °F30.0 °F85 %30.29 in10.0 miWSW (240°)16.1 mphOvercast
5:18 AM33.8 °F30.2 °F87 %30.25 in10.0 miWSW (240°)17.3 mphOvercast
5:53 AM34.0 °F30.0 °F85 %30.30 in10.0 miSW (230°)15.0 mphOvercast
6:53 AM34.0 °F30.0 °F85 %30.30 in10.0 miWSW (240°)18.4 mph27.6 mphOvercast
7:53 AM34.0 °F30.0 °F85 %30.32 in10.0 miSW (230°)16.1 mphOvercast
8:53 AM34.0 °F30.9 °F89 %30.34 in10.0 miSW (230°)19.6 mph25.3 mphOvercast
9:53 AM34.0 °F30.9 °F89 %30.35 in10.0 miWSW (240°)17.3 mph26.5 mphOvercast
10:53 AM35.1 °F32.0 °F89 %30.36 in10.0 miSW (230°)16.1 mphOvercast
11:53 AM36.0 °F32.0 °F86 %30.35 in10.0 miSW (230°)18.4 mphOvercast
12:53 PM37.0 °F32.0 °F82 %30.33 in10.0 miSW (230°)16.1 mphOvercast
1:53 PM37.9 °F32.0 °F79 %30.31 in10.0 miWSW (240°)18.4 mph25.3 mphMostly Cloudy
2:53 PM37.9 °F32.0 °F79 %30.31 in10.0 miSW (220°)11.5 mphMostly Cloudy
3:53 PM37.9 °F32.0 °F79 %30.30 in10.0 miSW (220°)11.5 mphMostly Cloudy
4:53 PM37.9 °F32.0 °F79 %30.29 in10.0 miSSW (210°)12.7 mphMostly Cloudy
5:53 PM37.9 °F32.0 °F79 %30.28 in10.0 miSSW (210°)11.5 mphMostly Cloudy
6:53 PM37.9 °F30.9 °F76 %30.28 in10.0 miSSW (210°)11.5 mphMostly Cloudy
7:53 PM37.0 °F30.9 °F79 %30.28 in10.0 miSSW (210°)11.5 mphOvercast
8:53 PM37.0 °F30.9 °F79 %30.28 in10.0 miSSW (200°)10.4 mphOvercast
9:53 PM37.9 °F30.9 °F76 %30.27 in10.0 miSSW (200°)10.4 mphOvercast
10:53 PM37.9 °F30.9 °F76 %30.26 in10.0 miSSW (210°)12.7 mphOvercast
11:53 PM37.0 °F30.0 °F76 %30.25 in10.0 miSSW (200°)11.5 mphMostly Cloudy
Hourly data recorded from KPIH, located miles away from Pocatello, Idaho







STORIES FROM OUR PARTNERS